Weather History for KMRH - January, 2014

Change the Weather History Date:

Wednesday, January 29, 2014

  Actual Average Record
Temperature  
Mean Temperature 22 °F -  
Max Temperature 26 °F 55 °F 72 °F (1974)
Min Temperature 19 °F 34 °F 16 °F (1971)
Degree Days  
Heating Degree Days 42    
Moisture  
Dew Point 19 °F    
Average Humidity 82    
Maximum Humidity 92    
Minimum Humidity 62    
Precipitation  
Precipitation 0.20 in - - ()
Sea Level Pressure  
Sea Level Pressure 30.18 in    
Wind  
Wind Speed 15 mph (North)    
Max Wind Speed 22 mph    
Max Gust Speed 29 mph    
Visibility 6 miles    
Events Rain , Snow    
Averages and records for this station are not official NWS values.
T = Trace of Precipitation, MM = Missing Value Source: NWS Daily Summary

Daily Weather History Graph

Daily Weather History Graph

Search for Another Location

Airport or City:

Trip Planner

Search our weather history database for the weather conditions in past years. The results will help you decide how hot, cold, wet, or windy it might be!

Date:

Astronomy

Jan. 29, 2014 Rise Set
Actual Time 7:07 AM EST 5:32 PM EST
Civil Twilight 6:40 AM EST 5:59 PM EST
Nautical Twilight 6:10 AM EST 6:29 PM EST
Astronomical Twilight 5:40 AM EST 6:59 PM EST
Moon 5:41 AM EST (1/29) 4:29 PM EST (1/29)
Length of Visible Light 11h 19m
Length of Day
10h 25m
Waning Crescent, 2% of the Moon is Illuminated
Jan 29
Waning Crescent
Jan 30
New
Feb 6
First Quarter
Feb 14
Full
Feb 22
Last Quarter

Hourly Weather History & Observations

Time (EST) Temp. Windchill Dew Point Humidity Pressure Visibility Wind Dir Wind Speed Gust Speed Precip Events Conditions
12:11 AM 26.1 °F 14.5 °F 23.0 °F 88% 30.06 in 2.5 mi North 13.8 mph - 0.06 in   Mist
12:33 AM 25.0 °F 12.2 °F 23.0 °F 92% 30.06 in 2.0 mi North 16.1 mph 26.5 mph 0.08 in   Overcast
12:58 AM 25.0 °F 12.2 °F 21.9 °F 88% 30.07 in 3.0 mi NNW 16.1 mph 26.5 mph 0.11 in   Overcast
1:06 AM 25.0 °F 11.3 °F 21.9 °F 88% 30.06 in 2.5 mi North 18.4 mph 26.5 mph 0.01 in   Overcast
1:27 AM 25.0 °F 12.2 °F 23.0 °F 92% 30.06 in 4.0 mi North 16.1 mph 24.2 mph 0.02 in   Overcast
1:47 AM 26.1 °F 13.1 °F 24.1 °F 92% 30.06 in 3.0 mi North 17.3 mph 24.2 mph 0.04 in Rain Light Freezing Rain
1:58 AM 26.1 °F 12.0 °F 24.1 °F 92% 30.08 in 3.0 mi NNW 20.7 mph - 0.04 in Rain Light Freezing Rain
2:13 AM 25.0 °F 12.6 °F 23.0 °F 92% 30.07 in 2.5 mi North 15.0 mph 28.8 mph 0.01 in Rain Light Freezing Rain
2:25 AM 25.0 °F 11.7 °F 23.0 °F 92% 30.07 in 3.0 mi North 17.3 mph - 0.02 in   Overcast
2:58 AM 25.0 °F 11.7 °F 23.0 °F 92% 30.07 in 4.0 mi North 17.3 mph 25.3 mph 0.04 in   Overcast
3:36 AM 25.0 °F 12.2 °F 21.9 °F 88% 30.07 in 7.0 mi North 16.1 mph - 0.00 in   Overcast
3:58 AM 24.1 °F 11.5 °F 21.0 °F 88% 30.07 in 7.0 mi North 15.0 mph 24.2 mph 0.00 in   Overcast
4:08 AM 24.1 °F 9.4 °F 21.0 °F 88% 30.07 in 5.0 mi North 20.7 mph 27.6 mph 0.00 in Rain Light Freezing Rain
4:15 AM 23.0 °F 8.0 °F 19.9 °F 88% 30.07 in 5.0 mi North 20.7 mph 27.6 mph 0.00 in Rain Light Freezing Rain
4:24 AM 23.0 °F 8.7 °F 19.9 °F 88% 30.08 in 4.0 mi North 18.4 mph 27.6 mph 0.00 in Rain Light Freezing Rain
4:46 AM 23.0 °F 10.1 °F 19.9 °F 88% 30.08 in 4.0 mi NNW 15.0 mph 23.0 mph 0.00 in   Overcast
4:58 AM 21.9 °F 9.8 °F 19.9 °F 92% 30.09 in 2.0 mi North 12.7 mph 24.2 mph 0.00 in   Overcast
5:17 AM 21.9 °F 6.5 °F 19.0 °F 89% 30.10 in 4.0 mi North 20.7 mph - 0.00 in   Overcast
5:58 AM 21.9 °F 7.8 °F 19.0 °F 89% 30.11 in 6.0 mi North 17.3 mph 25.3 mph 0.00 in   Overcast
6:33 AM 21.0 °F 7.1 °F 18.0 °F 88% 30.14 in 8.0 mi North 16.1 mph 27.6 mph 0.00 in   Overcast
6:58 AM 21.0 °F 8.1 °F 17.1 °F 85% 30.17 in 4.0 mi North 13.8 mph 23.0 mph 0.01 in Snow Light Snow
7:49 AM 19.9 °F 5.2 °F 17.1 °F 89% 30.18 in 2.5 mi North 17.3 mph 24.2 mph 0.00 in Snow Light Snow
7:58 AM 19.9 °F 3.5 °F 17.1 °F 89% 30.19 in 3.0 mi North 21.9 mph 28.8 mph 0.00 in Snow Light Snow
8:58 AM 21.0 °F 8.6 °F 17.1 °F 85% 30.22 in 9.0 mi North 12.7 mph 24.2 mph 0.00 in   Overcast
9:58 AM 21.9 °F 9.8 °F 19.0 °F 89% 30.24 in 10.0 mi North 12.7 mph 24.2 mph 0.00 in   Overcast
10:58 AM 23.0 °F 9.6 °F 18.0 °F 81% 30.27 in 10.0 mi North 16.1 mph - N/A   Scattered Clouds
11:58 AM 25.0 °F 11.3 °F 18.0 °F 75% 30.26 in 10.0 mi North 18.4 mph 27.6 mph N/A   Clear
12:58 PM 26.1 °F 14.0 °F 18.0 °F 71% 30.27 in 10.0 mi North 15.0 mph - N/A   Clear
1:58 PM 25.0 °F 14.2 °F 17.1 °F 72% 30.27 in 10.0 mi North 11.5 mph - N/A   Clear
2:58 PM 25.0 °F 13.1 °F 16.0 °F 69% 30.28 in 10.0 mi North 13.8 mph - N/A   Clear
3:58 PM 25.0 °F 15.5 °F 16.0 °F 69% 30.29 in 10.0 mi North 9.2 mph - N/A   Clear
4:58 PM 25.0 °F 16.3 °F 15.1 °F 66% 30.32 in 10.0 mi North 8.1 mph - N/A   Clear
5:58 PM 25.0 °F 17.1 °F 15.1 °F 66% 30.33 in 10.0 mi North 6.9 mph - N/A   Clear
6:58 PM 25.0 °F 17.1 °F 15.1 °F 66% 30.33 in 10.0 mi North 6.9 mph - N/A   Clear
7:58 PM 25.0 °F 18.1 °F 14.0 °F 63% 30.35 in 10.0 mi North 5.8 mph - N/A   Clear
8:58 PM 24.1 °F 17.0 °F 15.1 °F 69% 30.37 in 10.0 mi North 5.8 mph - N/A   Clear
9:58 PM 24.1 °F 16.0 °F 14.0 °F 65% 30.37 in 10.0 mi North 6.9 mph - N/A   Clear
10:58 PM 24.1 °F 14.4 °F 12.9 °F 62% 30.38 in 10.0 mi North 9.2 mph - N/A   Clear
11:58 PM 24.1 °F 16.0 °F 12.9 °F 62% 30.38 in 10.0 mi North 6.9 mph - N/A   Clear